Location: Eexterzandvoort
(53.0303°N, 6.7884°E)
Time: 23:53:56
(UTC+00:00)

Meteor 2-2 Rocket - Pass Details

Date: 19 May 2025
Orbit: 852 x 927 km, 81.3° (Epoch: 22 June)

Event Time Altitude Azimuth Distance (km) Brightness Sun altitude
Rises 20:57:51 0° 192° (SSW) 3,512 7.0 -10.0°
Reaches altitude 10° 21:00:16 10° 193° (SSW) 2,585 6.3 -10.2°
Maximum altitude 21:06:12 87° 281° (W) 927 4.4 -10.7°
Drops below altitude 10° 21:12:16 10° 13° (NNE) 2,639 7.4 -11.2°
Sets 21:14:47 0° 14° (NNE) 3,589 8.2 -11.4°
